Regional Weather Roundup
Issued by NWS

Home | Current Version | Previous Version | Text Only | Print | Product List | Glossary On
Versions: 1 2 3 4 5 6 7 8 9 10 11 12 13 14 15 16 17 18 19 20 21 22 23 24 25 26 27 28 29 30 31 32 33 34 35 36 37 38 39 40 41 42 43 44 45 46 47 48 49 50
000
ASUS44 KOUN 241010
RWROK

WEATHER ROUNDUP FOR OKLAHOMA
NATIONAL WEATHER SERVICE NORMAN OK
500 AM CDT SUN SEP 24 2017

NOTE: "FAIR" INDICATES FEW OR NO CLOUDS BELOW 12,000 FEET WITH NO
      SIGNIFICANT WEATHER AND/OR OBSTRUCTIONS TO VISIBILITY.

OKZ001>007-009>012-014-015-017-241100-
NORTHWEST OKLAHOMA AND THE PANHANDLE

CITY           SKY/WX    TMP DP  RH WIND       PRES   REMARKS
GAGE           MOCLDY    69  61  75 S13       29.89S
GUYMON         LGT RAIN  61  61 100 CALM      29.88S
ENID/WOODRING  CLEAR     70  64  83 S6        29.88S
$$

OKZ016-021>023-033>039-044-045-241100-
SOUTHWEST OKLAHOMA

CITY           SKY/WX    TMP DP  RH WIND       PRES   REMARKS
LAWTON/REGL    CLEAR     72  66  81 SE7       29.88S
LAWTON/FT SILL CLEAR     71  67  88 SE8       29.87S
FREDERICK      PTCLDY    68  65  90 E5        29.85S
CLINTON        PTCLDY    70  62  76 S13       29.90F
HOBART         PTCLDY    72  63  73 S10       29.89F
ALTUS AFB      CLOUDY    67  63  85 E8        29.87F
$$

OKZ018>020-024>031-241100-
CENTRAL OKLAHOMA

CITY           SKY/WX    TMP DP  RH WIND       PRES   REMARKS
OKLAHOMA CITY  PTCLDY    70  65  84 SE8       29.90F
OKC/WILEY POST CLEAR     75  66  73 S13       29.90S
OKC/TINKER AFB CLEAR     71  65  81 SE8       29.91F
STILLWATER     CLEAR     72  65  78 SE8       29.90S
GUTHRIE        CLEAR     74  65  73 S8        29.90S
$$

OKZ008-013-054>072-241100-
NORTHEAST OKLAHOMA

CITY           SKY/WX    TMP DP  RH WIND       PRES   REMARKS
TULSA          PTCLDY    71  65  81 SE6       29.90F
TULSA/JONES    CLEAR     69  66  90 CALM      29.92S
PONCA CITY     CLEAR     72  64  76 SE9       29.90S
MUSKOGEE       CLEAR     70  65  84 S3        29.94S
$$

OKZ032-040>043-046>053-073>077-241100-
SOUTH CENTRAL/SOUTHEAST OKLAHOMA

CITY           SKY/WX    TMP DP  RH WIND       PRES   REMARKS
ARDMORE/DWNTWN CLEAR     70  64  83 CALM      29.90S
MCALESTER      CLEAR     73  67  81 SE3       29.93S
$$




USA.gov is the U.S. government's official web portal to all federal, state and local government web resources and services.